Location: Unspecified
(0.0000°N, 0.0000°E)
Time: 19:37:38
(UTC+00:00)

Vanguard 1 - Pass Details

Date: 21 April 2026
Orbit: 654 x 3817 km, 34.2° (Epoch: 18 May)

Event Time Altitude Azimuth Distance (km) Brightness Sun altitude
Rises 23:41:37 0° 292° (WNW) 7,562 14.7 -77.5°
Reaches altitude 10° 23:49:27 10° 308° (NW) 6,819 14.4 -78.0°
Maximum altitude 00:04:28 20° 348° (NNW) 5,972 14.0 -78.1°
Drops below altitude 10° 00:18:14 10° 30° (NNE) 6,196 14.2 -77.3°
Sets 00:24:51 0° 46° (NE) 6,710 14.5 -76.5°
